Theta_e
350 350 349 351 350 350 350 349 349 348 348 348 348 348 347 347 348 348 347 346 347 347 347 346 346 346 346 347 346 346 347 349 349 349 349 349 347 347 345 341 338 335 336 338 334 331 332 335 337 333 330 329 326 332 338 336 336 336 335 335 335 335 335 334 334 333 334 334 334 334 335 335 336 336 337 337 337 337 336 335 335 335 335 336 335
350 349 349 351 349 348 349 349 347 346 347 346 347 347 347 347 347 348 349 347 346 346 346 346 346 346 346 347 347 346 346 347 348 348 348 348 348 347 346 343 339 337 337 338 338 335 333 333 336 334 331 329 326 330 336 336 336 336 336 336 335 335 335 334 334 334 333 333 333 333 334 335 335 336 337 337 337 336 335 334 333 333 334 334 335
348 347 347 349 348 348 347 346 344 343 343 344 345 346 347 347 346 344 345 345 343 342 343 346 347 346 346 347 347 347 346 346 348 349 349 348 349 349 346 345 342 338 337 338 338 337 336 334 334 335 333 331 327 331 336 335 336 336 336 336 335 335 335 335 335 334 334 333 333 333 333 334 334 335 335 336 336 335 335 334 333 333 332 333 333
344 344 344 344 345 345 345 343 343 342 341 341 341 342 343 346 346 342 340 339 339 340 341 344 346 346 346 346 347 348 347 346 347 348 349 348 349 349 346 345 344 341 337 337 338 338 337 336 334 333 333 332 329 330 335 336 335 336 335 335 335 335 336 336 335 335 335 334 334 334 334 334 334 334 334 334 334 334 333 333 333 332 331 331 332
343 344 344 345 345 345 345 344 344 343 342 342 341 338 337 340 344 345 344 342 340 342 343 344 345 346 346 346 346 347 347 348 347 347 348 348 349 349 348 346 345 344 341 337 337 338 338 337 336 333 333 332 331 329 331 334 335 335 334 334 335 335 335 336 336 335 336 336 336 336 336 336 336 335 334 334 334 334 333 333 333 331 331 330 331
345 346 345 345 345 346 346 345 345 345 344 343 342 339 335 333 339 345 348 346 345 344 344 346 346 346 347 347 347 346 347 348 348 348 348 348 349 349 349 348 347 345 343 341 338 337 338 338 338 337 335 333 331 329 328 331 334 334 334 334 335 335 335 335 336 336 336 336 336 337 337 336 336 336 336 335 335 335 334 334 333 332 331 330 331
344 344 344 344 345 346 345 344 344 344 344 344 342 340 337 334 336 341 344 346 347 346 343 344 345 345 346 347 348 347 347 348 348 348 349 349 349 349 349 349 348 347 346 344 342 340 338 337 338 339 338 336 333 330 328 329 331 332 333 333 334 334 335 335 335 336 336 336 336 336 337 336 336 336 336 336 335 335 335 334 334 333 332 330 330
343 344 345 346 346 346 346 344 344 344 343 343 341 340 339 335 333 335 339 343 345 344 341 342 343 343 343 345 346 347 346 347 348 348 349 349 349 349 349 348 348 349 349 347 344 342 341 339 339 339 339 338 337 335 331 329 330 331 333 333 334 334 335 335 335 335 335 336 336 336 336 336 336 336 336 335 335 335 334 334 333 333 332 331 330
345 347 347 347 347 346 346 345 345 344 343 343 342 341 340 337 335 335 337 341 344 344 341 341 340 340 342 342 344 346 347 347 347 348 348 349 349 349 349 348 346 347 348 348 346 344 342 341 340 339 339 338 338 338 336 332 330 330 333 334 335 335 336 335 335 335 335 336 335 335 335 334 335 335 335 334 334 333 333 333 332 331 331 330 330
344 346 346 346 346 346 346 346 345 344 344 344 344 344 344 341 341 340 340 343 345 346 343 340 338 337 340 341 344 344 345 347 348 347 347 348 349 349 349 349 347 344 345 346 347 346 344 343 342 341 340 339 338 338 339 337 332 329 331 334 335 335 335 336 335 335 335 335 334 334 334 334 334 333 333 333 332 331 331 331 329 328 328 328 328
343 343 342 343 344 344 343 343 343 343 344 344 343 345 347 345 343 342 343 344 346 346 346 342 339 338 337 338 341 342 341 343 346 347 348 348 347 348 349 348 347 346 344 342 343 347 347 344 343 342 340 339 338 337 339 340 337 332 329 331 333 334 335 335 335 335 335 335 334 334 333 333 333 333 333 333 332 331 330 330 329 328 328 327 328
341 342 342 342 342 341 340 340 340 341 342 342 341 345 347 345 344 342 340 339 339 342 346 345 341 339 337 334 336 340 338 336 342 346 348 347 346 346 348 348 347 347 348 345 342 344 348 347 344 343 342 341 340 338 337 338 339 337 333 331 331 332 334 335 336 336 336 336 335 335 334 334 334 334 334 333 332 332 332 332 331 332 331 330 330
340 340 340 341 340 339 339 338 339 339 339 339 339 342 344 343 343 341 337 336 333 334 341 346 345 342 339 335 335 338 337 335 338 340 343 347 347 345 346 348 348 348 348 349 347 343 345 348 346 342 342 343 342 339 338 337 338 339 337 334 333 331 333 335 337 338 338 338 337 337 337 337 336 336 336 335 334 335 334 334 333 334 334 333 333
339 338 338 339 339 339 339 340 340 340 340 340 340 340 339 340 341 340 339 339 336 334 341 347 347 345 344 341 339 338 336 335 338 337 339 345 347 346 345 345 346 347 348 349 350 347 344 347 346 342 342 343 342 341 340 339 338 338 338 337 336 334 333 334 336 338 339 339 339 339 339 339 339 338 338 338 338 337 337 337 336 336 336 335 335
340 338 336 336 337 336 337 338 338 339 340 340 340 340 340 341 341 339 340 340 339 340 342 345 346 346 346 344 342 341 339 338 339 337 340 345 346 346 345 344 345 346 348 347 348 349 348 348 347 344 343 341 342 342 341 340 339 338 338 338 338 337 336 335 334 336 338 339 339 339 340 340 340 340 340 340 339 339 338 338 338 338 338 337 336
335 333 332 332 333 333 334 334 334 336 339 339 338 339 340 342 341 340 341 341 341 343 343 343 344 345 345 344 343 343 343 341 340 339 342 346 345 344 344 345 344 344 347 347 347 348 349 349 348 346 345 343 340 340 342 342 340 339 338 338 339 338 337 336 336 336 336 338 338 338 339 340 339 340 340 340 340 340 339 338 338 338 339 338 337
328 329 330 331 331 332 333 333 333 335 337 338 338 338 339 341 342 341 343 342 341 343 346 344 342 344 344 342 343 343 344 342 342 342 344 345 344 344 345 344 344 344 346 347 347 348 348 348 348 347 347 346 342 340 342 342 340 338 338 339 338 338 338 337 337 337 336 337 337 337 338 338 338 339 340 340 340 340 339 339 338 338 339 338 339
332 333 331 330 330 332 333 333 333 334 335 336 337 338 338 338 339 340 342 344 341 340 343 342 342 343 342 342 342 342 343 343 343 344 343 342 343 344 344 344 344 344 345 345 347 348 347 347 348 349 349 348 345 342 343 342 340 339 338 337 337 338 338 337 336 336 336 336 336 337 337 337 337 338 340 340 340 339 338 338 338 338 338 338 338
334 333 331 330 331 332 333 334 335 336 337 337 337 338 338 338 339 339 341 342 339 338 339 339 342 344 342 342 343 343 343 343 343 344 342 342 344 343 342 342 344 344 342 342 343 345 347 346 347 349 350 350 348 345 344 342 342 342 339 337 336 336 337 337 336 335 334 334 334 335 337 337 337 338 340 340 338 336 336 336 336 336 336 336 337
334 332 330 329 331 333 335 336 337 337 337 338 338 339 339 338 338 337 336 337 337 337 337 338 341 342 342 342 343 344 343 342 343 343 343 343 342 341 341 341 343 344 343 342 342 343 346 347 346 347 348 350 351 349 346 342 342 342 340 338 336 336 336 336 336 335 334 333 333 333 335 337 338 338 338 338 336 335 335 335 335 335 335 335 335
336 335 333 330 331 333 335 336 336 337 337 337 338 339 337 336 337 336 334 334 335 337 337 339 340 341 342 342 342 341 341 341 342 342 342 342 340 339 341 341 342 343 342 342 343 344 346 347 347 346 346 349 350 350 347 345 344 342 339 338 338 337 336 337 336 336 335 334 334 333 333 335 338 338 337 336 335 335 334 335 335 335 335 336 335
336 337 336 333 331 330 332 334 336 337 336 335 335 336 335 337 339 338 336 336 335 337 338 339 340 340 341 341 340 340 341 341 342 341 341 342 341 341 341 340 341 341 340 342 344 344 344 346 346 345 346 348 349 349 347 345 346 345 341 339 339 337 337 336 336 336 335 335 335 335 334 334 335 337 337 336 335 334 334 335 336 337 337 337 337
336 336 336 336 334 330 330 333 335 336 335 333 332 332 335 338 338 335 334 335 335 336 337 336 338 339 339 340 340 339 341 342 342 342 341 341 342 342 340 340 341 340 340 343 345 343 342 343 344 343 345 347 347 348 349 346 346 346 343 340 339 338 337 336 336 335 336 335 335 335 335 334 333 334 334 335 335 334 334 335 337 339 340 340 340
336 336 336 336 333 329 330 334 334 334 333 332 331 330 332 334 333 330 330 331 333 335 335 334 336 337 339 341 341 339 339 340 340 341 342 341 342 342 340 339 341 340 339 343 346 345 341 339 341 341 342 345 347 347 349 349 348 346 343 341 339 337 335 335 334 334 335 335 336 335 334 335 334 333 333 333 334 334 335 336 338 340 341 341 341
336 336 334 332 330 328 331 334 334 332 330 330 329 329 330 330 329 328 328 329 331 333 333 332 334 335 336 338 338 338 339 339 339 339 340 341 341 341 340 340 341 341 340 342 345 344 341 338 340 340 340 343 346 348 348 348 348 347 345 342 340 338 336 334 333 332 332 332 333 333 333 334 334 333 332 333 334 335 335 337 339 341 340 341 341
336 333 330 328 327 328 330 332 333 332 330 330 330 330 330 330 329 329 329 330 330 331 331 331 332 334 335 335 336 336 336 338 338 338 338 339 341 340 340 341 341 341 341 342 344 344 340 338 338 339 339 342 344 347 348 347 347 347 346 343 341 338 337 335 333 331 330 330 331 331 331 331 332 332 333 332 333 334 336 337 339 339 340 340 339
331 328 326 326 326 328 329 330 331 331 330 330 330 331 332 331 331 329 329 330 331 331 331 331 332 334 334 335 336 335 334 336 338 338 337 338 340 340 339 341 341 341 341 341 342 342 340 338 338 338 339 340 343 345 347 346 345 345 345 343 341 338 336 336 335 332 331 331 331 331 332 333 333 332 332 332 332 333 334 336 337 338 338 338 338
327 326 326 326 327 328 329 330 330 330 331 331 330 330 331 331 331 330 329 330 331 330 330 331 332 332 332 333 334 333 333 334 335 337 338 336 337 337 339 341 341 341 341 340 339 340 339 337 337 338 340 341 343 344 344 344 343 343 341 339 338 336 336 336 337 335 335 334 333 332 332 334 336 336 335 333 332 331 333 335 336 337 337 337 339
328 327 325 325 326 326 328 330 331 330 331 331 329 329 329 329 330 330 330 331 332 330 328 329 330 331 330 330 331 331 331 332 333 335 336 336 337 337 337 339 340 340 340 338 339 340 339 339 338 339 340 340 343 345 345 343 342 341 340 337 335 335 335 336 336 336 336 336 335 333 331 332 336 338 338 336 334 332 332 334 335 336 337 338 340
327 325 323 324 324 325 326 330 332 332 332 330 329 329 328 328 329 330 331 331 331 329 328 329 331 331 330 329 330 330 330 330 331 332 333 334 336 338 338 337 338 339 339 338 338 338 338 338 338 339 339 339 341 345 347 345 341 342 342 339 337 336 334 335 336 336 337 336 335 332 331 333 336 339 339 338 336 334 333 333 335 337 338 340 340
330 327 324 323 324 325 327 330 332 332 333 331 330 329 328 328 328 329 331 331 329 328 328 329 330 330 329 328 328 327 327 328 329 329 330 331 332 334 336 337 337 338 339 338 338 337 337 337 336 335 336 338 340 344 347 346 343 342 343 341 339 337 336 336 336 336 337 337 335 332 333 335 337 339 339 338 336 335 334 334 336 338 339 339 339
331 329 326 325 323 324 327 330 331 330 330 330 329 328 328 328 327 328 330 330 329 329 328 328 329 327 326 326 325 326 328 329 328 328 329 330 331 331 333 335 335 336 338 339 337 335 336 337 335 334 335 338 340 342 345 347 346 344 344 343 340 338 338 338 337 337 337 337 335 334 335 336 337 338 339 339 338 337 337 337 338 339 339 339 339
330 331 330 328 325 325 326 328 328 328 327 327 327 328 329 328 327 329 331 331 329 328 327 328 327 326 325 324 324 326 329 330 330 329 329 330 332 332 331 332 333 335 338 339 338 336 335 335 335 335 335 338 339 340 342 343 343 343 344 344 342 340 339 339 339 339 339 338 336 336 337 336 336 337 338 339 338 338 339 339 339 339 339 339 339
332 332 331 328 326 325 326 327 327 327 326 327 327 328 329 327 327 329 330 330 327 326 327 327 326 324 323 323 324 326 327 328 329 329 329 330 332 332 332 331 332 334 336 338 338 338 337 336 335 335 335 336 338 339 340 339 336 337 340 342 342 340 339 339 340 340 340 339 338 337 338 337 336 337 338 338 339 339 339 339 339 339 339 338 337
332 332 331 327 325 325 327 327 327 327 326 326 328 328 328 328 328 328 327 327 327 326 326 326 324 322 322 323 326 327 326 325 325 326 328 329 330 331 331 331 332 333 334 336 338 338 337 336 336 335 336 337 338 338 340 339 334 333 338 341 338 337 338 339 340 342 342 342 342 339 338 338 338 338 338 339 339 339 340 340 339 338 337 336 336
331 332 331 330 329 329 329 328 328 328 327 327 328 328 328 329 330 328 326 327 326 325 324 324 323 322 322 325 326 326 323 322 322 323 325 328 330 330 330 330 331 332 333 335 336 337 337 337 337 336 336 338 339 339 341 342 337 334 339 343 339 337 338 338 340 342 341 343 345 343 338 338 338 338 339 339 339 340 339 338 338 336 336 336 336
330 330 330 330 331 331 332 331 329 329 328 327 328 327 328 330 330 328 327 327 326 323 323 324 323 324 326 326 325 322 321 321 322 323 324 325 327 329 330 331 332 332 332 333 335 336 337 338 337 336 336 338 339 339 341 343 340 335 337 342 342 338 337 338 340 342 342 344 347 345 340 338 338 338 339 339 338 338 338 336 336 336 336 337 337
329 328 328 329 330 330 332 332 330 328 327 328 329 329 330 329 328 327 327 327 326 324 323 323 324 327 328 325 322 320 319 320 322 323 323 324 326 327 328 330 332 332 333 334 337 337 336 336 336 336 337 338 339 340 341 343 342 339 340 343 343 340 336 338 341 343 344 346 346 344 341 339 338 338 337 337 337 336 335 336 336 336 337 337 337
328 328 328 329 329 330 331 332 331 330 330 330 332 334 333 330 330 330 329 327 327 326 323 322 325 328 327 323 322 320 319 320 322 323 323 323 325 325 326 328 330 332 333 335 338 338 336 335 335 336 336 337 339 340 340 341 342 342 343 345 344 341 337 338 341 342 345 347 345 341 339 339 338 338 337 336 336 336 335 336 336 336 336 336 336
329 328 328 328 329 330 331 331 332 331 331 332 335 336 334 331 331 332 329 326 326 326 322 322 325 327 325 323 322 319 318 320 322 324 324 323 323 323 324 327 329 331 331 333 335 337 336 335 336 337 337 337 340 341 339 340 342 342 342 343 344 343 341 340 340 340 343 346 345 341 340 339 339 338 338 337 338 337 337 336 336 336 336 336 334
328 328 328 329 329 330 330 331 331 332 333 334 335 332 331 329 328 327 324 323 325 325 322 321 324 326 325 323 321 319 318 319 321 324 325 323 323 323 323 325 328 330 331 332 333 335 337 337 337 337 337 337 338 340 339 339 342 341 340 340 342 343 342 342 342 341 342 345 345 344 342 341 339 339 339 338 338 338 338 337 336 335 336 335 335
328 329 329 329 329 329 329 331 332 333 334 334 332 331 328 325 323 322 321 323 325 324 322 322 324 326 325 323 321 319 318 318 319 323 324 323 323 322 322 324 326 329 330 332 333 334 336 338 336 335 336 337 337 340 339 339 341 341 339 341 342 342 342 344 346 344 341 341 342 343 343 342 340 339 339 338 338 338 339 338 336 335 335 335 335
329 329 330 329 329 329 330 331 332 333 333 332 331 330 326 322 321 321 321 323 324 323 323 323 324 325 325 324 323 321 318 318 318 320 323 324 323 323 322 323 326 328 330 331 332 333 334 336 336 336 337 337 337 339 339 339 341 341 341 343 343 341 340 342 345 343 340 338 340 342 343 343 342 339 338 338 340 341 341 339 336 335 335 334 334
329 329 329 329 329 329 330 331 332 332 332 331 330 328 324 322 322 321 321 323 324 323 324 325 324 323 323 324 325 322 319 317 317 318 322 324 324 323 322 323 325 328 329 330 331 332 332 333 335 336 338 337 337 338 339 339 340 341 341 343 343 342 342 341 341 341 340 338 339 341 342 343 343 340 337 337 340 342 342 341 339 337 336 335 335
328 329 329 329 329 329 330 330 330 330 330 330 330 327 325 323 322 321 321 322 324 324 325 324 323 322 322 322 324 323 321 319 318 318 321 324 325 324 323 322 324 326 329 329 331 332 332 332 332 334 337 339 338 339 339 340 340 340 342 343 342 342 342 343 341 340 340 339 339 341 342 343 345 342 338 337 338 340 342 341 339 339 338 336 336
329 329 329 328 328 328 328 329 329 329 329 328 328 327 326 323 322 321 321 321 324 325 324 324 323 322 321 322 322 322 323 322 321 320 321 324 325 324 323 322 323 326 328 329 330 331 332 333 332 332 335 338 338 338 339 339 339 339 340 341 342 342 341 341 339 339 341 341 340 342 343 343 345 345 342 339 339 339 340 340 339 338 338 336 335
329 330 328 328 328 327 327 328 327 328 328 328 328 328 326 324 322 322 321 322 324 324 323 324 324 322 321 322 322 322 323 325 324 323 323 324 324 324 324 322 322 325 328 328 329 330 331 333 334 333 332 334 336 338 339 338 339 339 339 340 343 343 341 341 340 340 343 343 341 342 343 342 344 346 345 344 342 341 341 340 338 338 337 335 336
330 330 328 327 327 327 328 328 327 327 329 329 329 328 325 324 323 322 321 322 323 324 325 325 325 322 321 321 322 322 323 324 325 324 324 324 324 324 323 322 321 324 326 327 328 329 329 331 334 335 334 333 333 337 338 338 339 339 340 341 342 342 342 343 343 342 342 344 342 341 343 344 344 346 348 347 346 345 345 342 338 336 336 336 337
330 329 328 327 327 327 327 328 327 327 328 328 328 327 326 324 323 322 321 322 323 324 325 325 323 322 321 320 321 322 322 323 323 324 324 324 324 324 322 321 322 323 325 326 328 328 329 330 332 335 336 335 333 334 337 339 339 339 340 340 340 341 342 343 343 341 341 343 342 341 343 345 344 345 347 348 347 347 348 346 342 337 337 338 337
329 329 328 328 328 328 328 328 327 326 326 327 327 328 326 324 323 322 321 321 321 323 325 324 322 321 320 319 320 321 321 321 321 322 324 324 324 324 321 321 323 324 325 326 327 328 329 331 332 334 336 336 335 334 335 336 337 337 338 338 339 341 342 343 343 342 341 342 342 342 344 345 344 344 347 349 348 348 349 349 346 342 340 338 336
329 328 328 327 327 328 327 326 326 325 324 325 326 327 326 322 322 323 321 321 321 322 324 323 320 319 318 319 320 320 320 320 321 322 323 324 324 323 320 321 323 324 324 326 327 328 329 331 332 333 335 336 336 335 334 334 334 335 337 337 338 340 341 341 342 342 342 341 341 343 345 345 344 344 346 348 348 348 349 348 347 345 341 337 334
Wind_Speed
10 11 10 10 11 10 9 10 9 10 11 12 12 14 13 12 12 12 12 11 10 10 9 8 9 9 9 9 10 10 10 9 9 9 8 11 13 12 11 12 12 11 11 10 9 9 10 11 11 10 9 10 14 17 16 15 14 12 12 11 11 11 11 11 10 10 10 10 10 10 10 9 9 8 7 7 7 6 5 5 5 5 6 5 6
10 11 10 11 12 10 10 11 11 11 11 12 12 13 14 13 13 12 12 12 12 11 11 10 9 10 10 10 10 10 10 10 10 10 10 11 12 13 14 13 13 13 12 11 10 9 10 11 12 11 10 10 13 17 17 16 15 14 13 12 12 12 12 12 11 11 10 10 10 10 10 10 10 9 8 8 7 7 6 6 6 6 7 7 7
11 12 11 12 11 11 13 13 14 12 11 13 12 13 14 14 16 15 14 14 14 14 13 11 11 11 11 11 11 11 11 11 11 11 11 11 11 14 15 14 14 14 14 13 12 12 11 11 12 12 12 11 12 16 18 17 16 15 14 14 13 13 13 13 13 12 11 11 11 11 10 10 10 9 9 9 8 8 7 7 7 7 7 8 8
13 14 13 13 13 14 15 15 16 14 13 14 13 15 15 15 17 19 17 16 16 16 15 14 13 13 12 12 12 12 12 12 12 11 11 11 11 14 16 14 14 15 15 15 14 14 13 13 13 13 13 12 12 15 17 18 17 16 15 15 14 14 14 14 14 13 13 12 12 11 11 10 10 9 9 9 9 8 8 8 8 8 8 8 8
14 14 14 15 16 17 17 17 18 17 16 16 16 17 18 19 19 18 18 18 17 16 16 15 15 15 14 13 13 13 13 13 13 12 12 12 12 13 15 15 14 15 16 16 16 15 15 15 14 14 14 14 14 14 17 18 18 17 17 16 16 15 15 15 15 14 14 13 13 12 12 11 11 10 10 9 9 9 9 9 9 9 9 9 9
16 15 16 17 18 20 20 19 19 19 18 17 18 18 19 21 20 18 18 17 17 17 16 16 16 16 15 14 14 14 14 14 14 13 13 13 13 13 14 14 15 16 16 16 17 17 17 17 16 16 15 15 16 15 16 18 19 19 18 18 17 17 17 16 16 15 15 15 14 13 13 12 12 11 11 11 10 10 10 10 10 10 10 10 10
17 18 18 18 19 21 22 21 20 20 20 19 19 19 19 21 20 21 21 19 18 19 18 18 17 17 16 16 16 16 15 15 15 15 15 14 14 14 15 15 15 16 16 16 17 18 19 19 18 18 17 17 17 17 17 18 18 19 19 19 19 18 18 18 17 17 16 16 15 15 14 14 13 13 13 12 12 12 12 12 12 12 12 12 11
19 19 20 20 21 22 22 23 22 22 22 21 21 21 21 22 22 23 25 24 25 23 21 21 20 19 18 17 17 18 18 17 17 16 16 15 15 16 17 17 17 16 17 17 18 18 19 20 20 19 20 19 19 18 18 19 19 19 20 20 20 19 19 19 18 18 17 17 17 16 15 15 15 14 14 14 14 13 13 13 13 13 13 13 13
21 20 21 21 21 22 22 23 23 23 23 22 22 22 22 23 23 24 25 27 29 28 25 24 24 23 21 20 18 18 18 19 19 18 17 17 17 16 17 19 19 18 18 18 18 18 18 19 20 20 20 21 21 21 20 20 21 21 21 21 20 20 20 20 20 19 19 18 18 17 17 16 16 15 15 15 14 14 15 14 14 14 14 14 14
22 21 22 22 23 24 24 23 23 23 24 24 23 23 24 24 25 25 24 26 29 30 29 28 28 26 26 23 20 19 19 20 21 20 19 18 18 18 18 18 19 19 19 19 19 18 19 19 20 20 21 22 23 23 22 21 21 22 23 22 22 21 21 21 21 20 20 19 19 18 17 17 17 16 16 15 15 15 15 15 15 15 15 14 14
23 23 23 22 23 24 24 23 22 22 22 23 23 23 25 24 25 25 24 26 28 30 31 30 31 30 28 27 24 23 21 22 23 22 21 20 20 18 18 19 19 19 20 20 20 18 20 21 19 20 22 23 23 24 24 24 23 22 23 24 23 23 22 22 22 21 21 20 19 19 18 18 17 17 16 16 16 15 15 15 14 14 14 14 15
20 19 19 20 19 19 20 21 22 21 21 22 22 23 25 25 24 24 25 27 27 28 29 30 33 33 32 30 28 27 25 25 26 25 23 23 22 20 19 20 19 20 20 21 20 19 20 21 21 21 22 22 23 24 25 25 24 24 23 24 24 24 24 24 23 22 21 21 20 20 19 18 18 17 17 16 16 16 15 15 15 14 14 14 15
18 17 17 18 18 18 19 19 20 20 21 22 22 23 24 23 24 25 27 27 28 28 27 28 32 33 32 32 30 29 28 26 28 30 27 25 26 24 21 21 20 20 20 20 21 21 20 21 23 23 21 21 22 23 25 26 26 25 25 24 24 25 25 25 24 23 22 22 21 20 20 19 19 18 18 17 17 17 16 16 16 15 15 15 15
19 18 19 19 19 19 19 19 20 20 21 23 23 23 23 22 23 24 25 27 28 27 23 24 28 29 29 30 31 31 31 30 30 31 29 27 28 27 24 23 22 21 21 21 22 23 22 22 23 23 22 21 22 23 24 26 27 27 26 26 25 25 25 26 26 25 24 23 22 22 21 21 20 20 19 19 18 18 18 17 17 17 16 16 16
15 17 19 19 19 20 20 20 20 21 22 23 24 23 22 22 22 22 22 25 27 26 23 24 28 28 25 27 28 27 27 30 31 30 29 28 28 28 26 25 24 23 22 22 22 23 23 22 23 23 23 22 22 23 24 25 27 27 27 27 26 26 26 26 26 26 26 25 24 23 23 22 22 21 21 20 20 19 19 19 19 19 18 18 18
15 16 17 18 19 19 20 20 21 21 23 24 24 23 21 21 21 20 20 22 24 22 22 26 30 27 23 24 25 23 24 25 25 27 27 26 26 27 27 28 27 25 23 24 23 23 23 23 24 24 24 24 23 23 24 24 25 26 27 27 27 26 27 27 27 27 27 26 26 25 24 24 24 23 23 22 22 21 21 21 21 20 20 20 19
16 15 15 16 17 18 19 20 21 21 23 23 23 22 22 20 19 18 18 21 23 21 21 26 30 28 25 26 24 21 22 22 21 23 26 26 24 25 26 26 26 25 25 26 24 24 25 25 25 25 25 27 26 25 25 25 25 26 27 27 27 27 27 27 28 28 27 27 27 27 26 26 25 25 24 24 23 23 22 22 22 22 22 21 21
12 12 13 14 15 16 17 19 19 20 22 23 22 22 22 21 19 18 17 20 24 23 24 26 27 27 26 29 29 25 23 20 17 20 23 25 25 26 27 26 26 29 31 30 27 25 27 26 24 24 25 27 28 27 26 26 26 26 27 27 27 27 27 27 27 27 27 27 27 27 27 27 26 26 25 25 24 23 23 23 23 23 23 23 22
10 10 11 12 13 14 15 16 16 18 21 21 21 20 20 18 18 17 17 20 24 24 24 23 23 24 25 27 31 33 31 25 21 21 20 21 23 24 26 26 27 28 30 32 31 28 28 28 26 25 25 26 28 29 28 27 27 27 27 28 27 26 26 27 27 27 27 27 28 28 28 28 27 27 26 25 24 24 24 24 24 23 23 24 23
10 9 10 12 13 13 13 14 15 16 18 19 19 18 17 15 15 17 18 20 22 22 22 22 21 23 23 24 27 31 33 31 31 30 24 22 26 27 28 27 25 24 25 27 28 28 28 29 28 27 25 25 27 30 30 28 28 28 28 29 28 27 27 26 27 27 27 27 28 29 29 29 29 28 27 26 26 26 25 25 25 25 25 25 25
10 10 11 11 11 12 13 14 14 14 16 16 16 16 16 15 15 16 17 18 19 20 20 20 20 22 22 23 25 27 29 29 31 35 32 29 32 34 32 29 27 27 29 28 28 28 28 29 29 28 27 27 28 30 30 28 28 29 29 29 29 29 29 28 27 27 27 27 28 29 29 30 30 30 29 29 28 28 27 26 26 25 26 26 26
10 10 12 12 12 12 13 14 14 13 15 15 14 15 16 15 15 17 17 17 19 19 19 19 19 21 21 22 23 23 24 26 27 31 32 30 32 34 33 31 31 33 34 32 31 30 29 29 28 27 28 30 30 29 29 28 28 28 29 29 29 29 29 29 29 29 29 29 29 29 30 30 31 32 32 32 31 30 29 28 27 26 26 26 26
11 11 11 12 13 13 13 13 13 13 15 15 16 16 15 13 15 18 18 18 19 19 19 21 19 19 19 19 22 22 22 25 28 29 29 29 32 34 32 31 32 35 35 31 30 32 33 31 29 28 28 30 29 27 26 27 27 28 28 29 29 29 29 29 29 29 29 30 30 31 31 31 32 33 33 34 33 32 31 29 28 27 27 27 27
12 11 11 11 13 14 12 12 13 13 14 14 15 15 14 14 15 17 17 17 18 18 20 21 20 20 18 16 20 21 22 25 27 28 28 29 32 33 32 32 32 34 34 30 29 32 34 33 32 31 30 29 29 28 27 27 27 27 27 28 29 30 29 29 29 29 29 30 30 31 32 33 33 34 34 34 34 34 33 31 30 29 28 28 28
11 11 12 12 13 13 12 11 12 12 13 14 14 14 14 14 15 16 17 17 16 17 19 20 20 21 20 19 21 22 21 23 24 26 27 28 31 34 34 33 31 33 33 29 27 29 31 32 32 31 31 29 26 26 26 26 26 26 26 27 28 29 29 29 30 30 30 31 31 32 33 34 35 35 35 35 35 35 34 33 32 31 30 30 30
11 12 13 13 13 13 12 11 12 12 13 13 13 14 14 15 16 17 18 18 18 18 19 20 19 20 21 21 23 23 22 22 24 26 25 25 30 34 34 31 30 32 31 26 24 27 28 29 30 30 31 30 25 23 24 25 25 24 25 27 27 27 28 29 30 30 30 30 31 32 33 34 35 36 37 36 36 36 35 34 33 32 32 31 31
12 12 13 13 13 13 13 12 12 12 13 13 13 13 14 15 16 17 18 18 19 20 21 21 21 21 22 23 22 23 23 23 25 26 25 26 27 29 29 30 29 29 28 26 24 25 26 27 27 28 29 29 27 26 26 26 25 24 25 26 26 26 27 29 30 31 31 30 30 30 31 32 33 35 36 37 37 36 36 35 34 34 33 32 32
12 12 12 12 13 13 13 13 12 11 12 13 13 14 14 15 16 17 18 17 17 18 19 21 22 22 23 23 23 24 24 25 25 26 28 29 29 29 28 28 27 26 26 26 25 25 25 26 26 27 27 27 28 30 30 29 27 27 27 27 27 27 27 28 29 31 32 32 31 31 31 30 31 33 34 36 37 36 36 35 34 33 33 32 32
12 12 12 13 13 13 13 12 12 12 12 13 15 16 16 16 16 17 17 17 16 17 19 20 20 21 21 22 23 23 24 24 25 26 29 29 30 30 31 30 29 28 27 25 25 24 23 23 23 24 26 28 29 30 29 29 29 28 28 29 29 30 29 29 28 29 31 31 31 32 32 31 30 31 32 34 35 36 35 34 33 33 33 32 31
12 12 13 13 14 13 13 12 12 12 12 13 15 16 17 18 17 17 16 17 18 18 19 19 18 19 22 22 23 23 24 24 24 25 27 29 30 31 33 34 32 32 31 30 29 28 25 25 25 24 25 26 29 29 27 28 28 26 26 28 29 31 31 30 29 29 29 30 30 30 31 31 30 30 31 32 33 34 34 33 33 32 32 31 31
11 12 13 14 14 14 13 12 12 13 13 13 14 15 16 16 16 16 16 17 19 19 19 18 17 19 21 22 24 25 26 26 26 27 27 29 31 32 33 34 34 34 35 34 34 33 30 28 29 28 26 24 24 23 23 25 26 25 26 26 27 29 30 31 30 30 30 29 29 30 30 30 30 30 30 30 31 32 32 32 32 31 31 30 30
12 13 13 14 14 14 14 13 13 14 14 14 14 15 15 15 16 17 17 18 20 20 20 19 18 19 20 22 24 25 27 28 29 30 30 30 29 31 33 34 35 36 36 35 38 38 34 31 32 31 28 26 24 22 21 22 24 25 26 26 26 26 28 29 30 30 31 30 29 29 30 30 31 31 30 30 30 30 30 30 31 30 30 29 28
13 13 14 14 14 14 14 14 14 15 15 14 15 15 15 15 17 16 16 18 20 21 21 20 19 20 21 23 24 25 25 27 28 29 30 31 31 32 32 33 36 37 37 37 40 41 39 36 36 34 30 28 27 27 26 27 28 28 29 29 28 26 27 28 28 29 30 30 29 29 30 30 31 31 31 31 30 30 30 30 30 29 28 28 27
13 13 15 16 15 14 14 14 14 14 14 14 14 15 15 17 18 16 16 18 19 21 20 19 18 20 22 23 24 25 25 27 29 29 29 30 31 33 33 33 35 37 39 38 39 41 41 38 38 38 36 33 32 31 31 33 35 33 32 34 33 30 29 29 27 28 29 29 29 30 30 30 31 31 31 31 31 30 29 29 28 27 27 26 26
14 15 16 17 16 15 14 14 14 14 14 15 15 15 16 17 19 18 18 19 20 21 20 17 17 20 23 23 23 24 27 29 31 32 31 30 31 34 36 35 35 37 40 41 40 41 41 39 38 38 38 36 35 35 34 37 40 36 34 36 36 33 32 31 29 28 28 28 28 29 30 29 30 31 30 30 29 29 28 27 27 26 25 25 24
15 15 16 17 17 16 15 14 15 15 14 15 16 16 17 17 19 20 21 20 20 22 19 16 17 21 22 22 23 25 29 32 34 34 33 31 31 33 35 35 35 37 38 41 43 42 41 40 38 37 37 35 35 36 34 35 38 36 34 35 35 32 31 31 30 28 28 27 26 28 30 29 30 30 29 29 28 28 27 26 26 25 24 23 23
15 15 15 15 16 17 16 16 17 16 16 16 16 17 17 17 19 21 21 21 21 22 19 16 18 21 21 21 24 28 32 34 34 34 35 35 32 33 34 34 34 35 37 40 43 43 42 40 39 38 37 35 36 37 33 33 35 35 35 35 34 33 31 31 30 30 29 28 27 29 30 30 30 30 29 28 27 27 26 26 25 24 23 23 22
15 15 15 15 17 18 17 17 18 18 16 16 16 17 18 18 19 21 22 22 21 21 20 17 17 19 20 22 25 29 33 33 32 33 35 36 32 30 34 35 33 32 34 38 40 41 42 41 40 40 37 35 37 37 33 32 33 33 33 33 31 31 32 31 31 31 30 31 32 31 30 30 30 29 29 28 27 26 26 26 25 24 23 23 23
15 16 16 16 17 18 17 17 18 17 16 15 15 16 17 18 18 19 22 22 21 20 20 19 17 17 20 23 24 28 32 33 33 33 34 33 30 29 32 32 33 33 32 35 38 39 40 39 39 39 39 38 38 36 35 34 33 33 33 30 29 31 32 32 32 31 30 30 33 34 32 31 30 29 28 27 26 26 26 26 25 25 24 23 22
15 16 16 17 17 17 16 16 17 16 15 14 14 15 16 17 17 19 21 23 21 20 21 20 17 17 20 22 23 27 31 32 32 33 33 33 31 30 30 27 28 32 33 35 36 35 35 34 33 36 38 38 36 34 35 35 34 35 35 32 30 30 30 30 31 32 31 30 32 33 33 32 31 30 29 28 28 28 27 27 27 26 25 23 22
16 16 17 17 17 17 17 16 16 16 14 13 14 16 16 17 19 20 22 23 21 20 21 20 18 17 20 22 22 26 31 32 33 33 33 35 33 31 30 26 23 27 34 36 33 30 30 30 34 37 38 40 39 36 36 36 34 34 34 33 33 31 28 27 28 30 32 32 32 32 31 32 32 31 30 30 31 30 30 30 29 27 26 25 23
16 17 17 17 16 16 16 16 15 14 14 15 17 18 17 17 19 21 22 21 20 20 21 20 19 18 20 23 23 25 30 33 34 34 34 37 38 36 33 28 23 24 30 35 35 31 29 29 35 38 39 42 41 37 37 38 36 34 32 33 34 32 29 27 27 30 31 31 33 33 32 31 33 33 32 32 32 31 31 31 30 29 27 26 25
16 16 16 16 15 15 16 15 15 14 15 17 19 18 17 18 19 20 20 19 20 20 20 20 20 20 21 24 24 24 27 32 35 36 35 37 41 41 38 30 22 19 22 30 36 36 31 29 32 34 38 42 40 36 36 37 36 34 32 32 32 31 31 29 29 31 32 30 31 34 33 32 33 34 34 32 31 30 30 30 30 29 28 27 27
15 15 15 15 15 15 15 15 15 15 15 17 19 19 18 19 20 20 19 19 20 21 20 20 21 21 23 25 25 24 24 28 33 36 36 36 40 43 42 36 26 19 17 21 30 35 35 33 33 34 38 43 41 37 35 36 36 33 32 32 32 31 31 31 31 32 30 28 30 33 35 33 32 35 36 34 32 29 28 28 28 28 29 29 29
15 15 15 15 15 15 15 15 15 15 15 17 19 20 20 20 21 20 19 20 21 22 21 21 21 22 24 26 27 26 24 24 29 34 35 36 38 41 43 40 32 25 21 18 21 29 34 36 37 37 37 37 36 36 35 35 35 33 31 32 33 32 31 32 31 29 27 26 28 33 36 33 31 34 37 36 33 30 29 29 29 28 28 29 30
14 14 14 14 14 14 14 15 15 15 15 16 18 20 20 20 21 20 20 20 21 23 23 22 21 22 25 26 27 26 26 25 27 30 34 36 38 40 42 40 35 29 25 23 19 21 27 33 39 42 40 35 34 35 34 34 34 35 35 33 31 32 33 32 31 28 26 26 27 30 34 33 31 32 35 35 33 31 30 30 30 29 28 28 29
13 14 14 14 14 14 14 14 14 15 15 16 18 20 21 20 20 20 20 20 22 23 23 22 21 22 24 26 26 26 26 26 26 27 31 35 38 39 40 41 39 33 28 27 25 20 21 28 35 40 43 43 39 34 32 34 35 36 36 33 29 30 31 30 29 28 28 27 27 30 33 33 32 32 33 32 32 31 31 31 31 30 29 28 29
13 14 14 14 13 14 14 14 15 15 15 16 18 19 20 19 19 20 20 20 22 23 23 22 22 24 25 25 26 25 25 26 27 27 28 32 36 38 39 41 40 36 32 31 32 28 22 25 32 35 39 43 43 38 34 35 36 34 33 32 29 29 30 28 28 29 27 27 29 32 32 31 31 32 31 30 30 30 28 29 30 29 28 29 29
13 13 14 14 13 14 14 14 16 16 15 16 18 19 19 18 19 19 19 20 22 23 22 22 23 24 24 24 25 25 25 25 27 27 28 30 33 35 38 40 39 35 34 35 38 36 27 24 33 37 36 37 41 42 40 38 36 33 32 33 32 31 31 29 29 29 28 28 30 32 32 30 29 30 31 29 29 28 26 26 28 28 27 28 27
13 13 13 13 13 13 14 15 17 17 16 16 17 18 18 18 18 19 19 19 21 22 22 22 24 24 24 23 23 23 24 25 26 27 27 28 31 33 36 38 36 34 35 38 40 38 29 22 29 38 40 38 39 41 43 43 41 37 36 37 36 32 29 28 29 30 29 29 28 28 31 32 29 29 30 28 27 28 27 24 26 27 26 26 25
13 13 12 13 13 14 15 16 18 18 17 15 15 16 17 17 17 18 19 20 21 22 22 24 25 24 22 21 21 21 23 24 25 25 25 26 28 30 32 34 34 34 36 38 38 34 29 23 23 32 38 39 38 39 40 43 44 41 39 39 39 35 31 29 30 29 27 28 29 29 30 31 29 30 30 28 26 26 26 25 26 27 26 25 24
Wind_Direction
265 269 277 275 274 279 285 284 275 271 274 277 280 284 282 278 281 284 285 282 278 278 279 280 279 277 275 271 271 272 268 260 256 252 239 244 253 248 239 235 231 227 228 230 228 229 229 228 230 232 235 233 222 212 210 211 212 215 216 219 221 221 221 220 221 222 220 218 218 220 223 226 227 228 230 234 239 242 246 252 255 255 259 259 257
265 267 271 273 279 287 286 282 279 277 277 278 277 282 286 285 282 280 281 281 277 272 269 267 264 266 267 265 261 259 262 259 257 257 247 243 247 249 244 235 234 231 229 233 231 230 231 230 229 232 235 236 224 212 210 212 212 216 217 219 222 221 221 221 221 223 224 223 223 225 227 230 233 234 235 238 240 244 248 252 255 254 253 253 253
264 265 267 273 282 287 282 281 284 285 284 284 284 282 282 283 282 280 278 277 279 278 273 268 265 265 263 264 263 258 257 256 254 253 252 250 241 247 250 238 232 235 232 232 233 232 231 231 230 231 232 234 227 214 211 214 214 216 219 220 222 222 222 223 223 222 224 225 226 229 231 232 236 238 239 238 240 243 247 252 255 256 253 251 251
269 271 273 277 279 280 281 283 285 283 280 281 283 282 281 281 281 282 282 279 279 281 279 273 269 267 263 262 262 259 257 254 253 250 250 249 239 244 254 246 234 235 237 235 234 233 231 232 232 232 230 229 229 221 215 216 217 217 219 220 221 223 224 224 225 225 224 226 227 229 231 234 236 239 241 241 241 243 246 252 256 258 257 255 253
272 275 280 282 283 286 287 285 283 279 276 277 278 280 284 285 281 281 283 280 279 279 277 274 270 267 266 264 262 261 259 254 252 251 249 247 241 240 250 253 244 236 237 238 237 235 234 233 233 233 232 229 229 227 222 220 220 219 219 220 220 222 225 227 227 228 228 228 229 231 232 234 236 239 242 244 246 247 250 254 257 258 258 257 255
277 279 282 283 287 290 289 286 285 280 276 274 273 275 279 282 282 280 276 276 277 276 273 270 268 267 266 266 264 261 258 256 254 252 249 246 242 239 240 248 252 247 242 242 241 238 237 236 235 236 235 232 230 230 227 224 222 222 220 219 220 221 223 227 228 229 231 232 233 234 234 235 237 241 243 246 248 251 253 254 256 257 257 256 255
276 280 281 284 289 290 290 290 287 283 279 274 271 271 274 277 278 275 271 270 269 269 271 270 267 264 263 264 264 263 259 257 255 251 248 245 242 238 234 234 243 254 253 247 243 240 240 238 237 237 237 236 234 232 230 226 224 223 223 221 220 221 221 225 228 229 231 233 236 236 237 237 238 241 243 247 250 251 253 254 256 256 255 254 254
276 279 282 286 288 287 287 287 286 283 280 275 272 272 272 272 273 273 272 271 266 267 272 272 271 268 265 264 264 265 264 259 255 252 249 246 242 240 239 233 228 238 249 251 247 242 241 241 239 238 238 238 236 235 232 229 227 224 224 223 223 223 222 224 226 228 230 233 235 237 238 239 240 241 243 246 249 252 252 253 254 253 252 251 251
283 283 284 285 283 282 282 282 281 281 279 274 272 270 268 268 270 271 273 271 267 267 267 266 270 271 268 265 261 262 264 262 259 254 249 246 243 240 240 242 235 230 234 244 250 249 245 241 240 239 239 240 239 237 235 232 230 228 227 226 226 226 225 226 227 228 230 232 235 236 238 239 240 241 243 245 246 250 252 253 254 252 250 248 248
287 287 285 282 280 280 281 280 279 280 278 275 274 271 266 266 268 272 273 271 269 268 266 263 265 267 267 267 262 258 259 261 261 256 252 247 245 243 238 242 246 242 235 235 241 248 250 245 241 242 240 240 240 237 236 235 233 232 230 229 229 229 229 229 230 230 231 232 233 236 238 239 240 241 242 243 245 247 248 250 252 251 249 247 248
286 287 286 284 283 283 285 287 285 282 278 277 280 276 269 267 268 272 273 271 271 269 267 263 261 261 263 264 262 260 259 262 262 258 254 250 247 246 243 243 245 246 245 241 236 233 244 250 246 245 244 241 239 238 236 236 236 234 233 232 232 232 232 231 232 233 232 232 232 233 236 238 239 240 240 241 243 244 245 245 247 248 249 249 250
287 287 289 290 289 289 290 292 290 288 285 284 283 275 272 273 271 271 271 271 273 271 268 266 262 260 260 261 260 260 262 263 262 259 257 255 251 246 245 250 249 243 242 244 241 231 231 243 246 245 246 243 240 238 237 236 236 237 235 234 234 233 232 232 232 232 233 233 232 232 233 236 238 239 240 241 241 242 243 244 245 246 248 250 252
294 294 295 295 292 293 294 292 290 289 287 285 282 274 272 274 271 270 269 270 273 273 270 268 264 261 261 262 261 259 259 258 258 261 261 258 256 252 245 246 247 241 238 236 241 239 230 233 242 245 244 243 241 239 237 237 236 237 238 236 235 234 233 233 232 232 233 233 233 234 234 235 237 239 241 241 242 243 244 244 245 246 247 249 251
297 297 298 298 297 298 298 295 293 291 287 285 285 280 275 273 271 269 266 265 271 272 267 264 263 261 262 264 265 263 261 257 257 261 262 256 254 254 248 246 244 240 239 233 235 241 234 228 237 244 242 239 240 238 235 235 235 235 236 236 236 236 235 235 235 234 234 235 235 236 237 237 237 239 241 242 242 243 244 245 245 246 246 248 250
298 300 300 299 298 296 293 291 291 290 287 285 284 281 276 273 271 267 262 263 269 267 259 258 261 261 259 262 263 264 264 259 256 258 259 255 250 249 248 247 245 241 240 237 235 239 236 228 230 240 244 240 238 239 236 235 236 235 235 235 235 236 236 236 237 238 237 238 238 238 238 239 240 241 241 241 242 243 244 245 246 246 247 248 249
293 294 292 290 289 288 287 286 285 283 282 283 284 282 279 276 274 269 263 265 271 268 261 260 263 261 257 255 255 256 259 258 258 257 253 252 251 250 249 247 245 243 241 240 238 237 236 231 228 232 240 243 241 240 239 239 239 237 236 236 235 235 236 236 237 239 240 240 240 240 240 242 243 244 243 243 243 244 245 245 246 248 248 249 249
289 287 287 287 286 286 285 284 284 283 282 283 284 282 280 278 277 275 270 272 276 272 266 266 267 264 256 253 252 250 255 257 259 256 249 249 252 248 246 245 245 244 239 237 237 238 238 235 232 229 230 239 243 240 237 240 240 238 236 235 235 234 234 235 236 237 240 242 243 243 243 244 245 244 244 245 245 246 246 246 248 249 250 250 250
297 296 295 293 289 288 286 284 283 282 281 280 279 281 283 281 275 273 272 275 279 276 272 272 272 268 258 252 250 249 255 257 258 263 258 253 249 243 243 243 243 242 240 238 236 239 241 237 236 232 226 230 239 239 235 236 239 239 237 235 235 235 234 234 234 235 237 240 243 244 245 244 245 245 245 245 246 246 247 248 249 251 252 252 254
307 305 303 301 298 294 291 288 285 282 281 281 283 284 284 282 276 274 272 274 280 281 280 279 274 272 267 259 253 250 254 256 256 263 267 261 253 250 251 250 246 245 243 240 237 239 242 239 235 233 228 227 233 237 236 235 236 238 240 240 237 235 235 235 235 235 236 239 242 244 244 244 244 244 244 244 245 247 249 250 250 251 253 255 256
312 313 312 310 309 306 303 299 294 290 289 289 292 290 284 283 284 282 279 279 283 287 289 286 277 276 275 271 264 258 258 259 255 253 256 262 262 260 260 256 252 252 251 246 241 239 241 242 239 236 233 230 229 234 239 236 234 235 238 242 241 237 234 235 236 237 238 239 241 242 242 243 243 242 242 244 247 249 250 251 251 253 255 257 259
314 314 312 312 314 313 312 310 306 304 303 301 300 297 296 300 298 290 287 288 290 290 289 286 282 279 274 271 269 266 266 265 258 252 251 255 259 260 260 257 254 255 255 252 246 239 237 240 242 240 237 234 230 234 239 237 234 236 238 240 243 241 237 235 236 237 239 240 241 242 242 242 241 242 242 245 248 249 250 250 252 254 256 259 261
315 312 310 315 318 317 314 312 313 311 311 313 311 308 308 307 300 293 292 293 294 291 286 284 283 280 275 274 273 269 266 266 266 261 251 249 256 259 259 257 255 256 255 250 244 240 238 238 241 241 239 236 233 234 238 238 235 236 239 239 241 243 241 239 237 237 238 239 241 242 243 243 242 242 243 246 249 250 250 250 251 254 257 259 261
316 315 317 319 318 319 316 310 310 310 312 317 317 315 312 303 297 299 300 298 297 296 292 289 288 284 281 281 280 274 266 265 270 268 254 247 253 257 258 259 256 255 254 249 243 242 241 240 240 241 240 238 234 231 233 237 238 238 239 240 242 244 244 241 240 239 239 239 241 242 243 244 243 244 245 247 249 250 250 249 250 252 255 258 261
319 319 319 318 314 318 319 311 309 311 314 315 315 316 314 307 305 308 309 305 301 298 297 296 293 289 285 280 280 279 272 269 271 269 260 253 254 259 262 263 259 256 254 250 246 246 243 240 240 240 241 241 236 231 228 231 236 240 242 243 244 246 247 245 243 242 242 241 241 242 243 244 244 244 245 247 248 248 249 249 249 251 254 256 259
316 313 313 315 316 318 318 313 312 313 314 315 317 319 317 314 315 317 316 312 308 301 296 297 297 294 292 285 281 280 275 275 277 273 267 259 259 265 266 262 260 260 258 252 249 249 244 239 238 237 238 240 238 235 232 230 233 239 244 246 246 248 248 247 246 244 244 244 244 244 245 245 245 244 244 245 246 247 247 248 249 250 253 255 257
307 308 314 318 320 319 316 313 312 314 317 320 323 321 318 318 319 320 318 315 313 308 303 302 301 299 297 292 286 283 279 279 281 277 271 264 261 264 264 260 260 262 260 255 251 250 247 241 240 238 237 238 239 239 236 234 234 236 241 246 250 251 249 247 247 246 245 246 245 245 245 246 246 246 245 244 245 246 247 247 249 251 253 255 258
304 310 317 320 321 319 315 314 314 315 317 321 323 320 317 318 317 316 315 314 313 311 310 309 306 301 299 296 289 287 287 282 279 275 271 267 262 262 261 258 259 261 258 254 252 253 251 246 245 243 240 238 238 237 237 238 238 237 240 245 250 254 254 249 246 245 246 247 247 246 245 245 246 246 245 245 245 246 246 247 249 251 253 256 259
308 315 321 322 322 319 314 314 315 314 314 316 318 316 315 315 314 313 314 313 311 312 313 311 307 305 304 303 298 296 296 290 283 277 274 271 268 264 259 253 252 257 258 256 254 255 256 254 251 247 242 239 237 235 236 239 241 241 243 247 250 253 254 253 249 246 245 246 247 247 247 248 247 246 245 244 244 244 245 246 248 251 254 256 258
311 316 323 323 322 321 317 313 313 311 310 313 318 320 321 321 317 317 318 315 312 317 322 318 314 313 311 309 305 302 301 296 289 283 281 280 274 263 258 257 252 250 254 259 258 256 255 253 252 251 248 244 240 235 237 242 245 245 246 248 250 251 253 255 254 250 247 246 247 247 248 249 248 246 244 243 242 242 242 244 247 251 254 255 256
311 315 321 321 321 322 319 314 312 312 311 315 321 323 323 323 322 322 321 320 319 323 326 325 322 320 319 319 316 312 309 304 297 289 284 282 274 263 261 261 254 247 250 257 258 258 256 251 249 251 252 249 243 234 236 246 250 248 247 248 249 250 251 253 255 254 250 246 246 246 246 246 246 245 243 241 240 239 239 241 244 248 251 252 254
307 310 314 316 319 319 318 313 309 308 309 313 320 322 322 325 326 324 320 319 322 326 327 325 324 323 322 323 321 319 317 314 309 301 293 287 280 274 269 263 257 252 250 252 256 257 255 254 254 252 250 249 245 235 236 247 253 251 249 248 247 247 249 251 253 255 254 248 245 244 243 242 242 242 242 239 237 236 236 238 242 244 247 249 252
302 306 309 311 313 313 313 311 307 306 307 310 316 320 324 329 329 325 322 321 322 323 324 324 324 325 325 325 324 322 319 315 312 307 302 297 289 281 274 268 264 259 252 251 256 257 254 254 257 256 250 245 244 241 238 242 248 251 251 248 246 245 245 248 251 252 253 250 245 242 241 241 241 241 239 237 235 234 235 237 240 242 244 246 248
306 306 306 306 307 308 308 308 308 308 308 310 314 316 320 325 326 324 320 319 320 322 323 323 324 327 328 329 328 325 319 313 310 307 302 298 292 285 279 274 269 262 255 252 254 256 256 254 255 257 251 244 244 245 244 243 245 248 249 248 248 248 245 245 248 250 250 249 245 242 240 240 241 240 238 236 235 235 236 237 238 240 241 243 245
304 302 302 303 304 302 302 304 306 308 309 310 310 313 315 318 321 321 317 316 319 322 322 320 324 330 331 330 328 325 322 317 312 308 302 296 291 286 281 277 272 265 259 256 252 254 257 257 256 257 253 248 246 245 246 249 251 252 251 249 249 250 249 246 245 246 247 247 246 242 240 239 239 238 236 236 236 235 235 235 236 237 239 242 244
299 300 304 307 305 298 295 297 300 304 309 309 308 311 314 314 315 316 317 318 320 323 322 318 324 332 334 332 329 326 325 321 317 314 309 299 291 287 282 277 275 269 263 259 254 252 256 258 256 255 254 252 250 248 247 249 255 256 251 251 252 250 249 246 242 241 242 244 244 241 239 237 237 236 235 235 234 232 232 232 233 236 238 240 242
297 300 305 309 308 301 294 293 297 301 305 306 307 310 312 310 308 311 314 316 318 322 322 320 326 333 335 332 329 328 328 326 323 322 318 307 294 288 285 280 277 273 267 261 256 252 254 253 252 253 254 251 250 250 247 245 251 252 245 247 252 251 247 245 240 236 237 240 240 239 238 236 234 232 231 230 229 229 230 231 232 234 236 239 241
297 299 301 302 302 301 295 292 294 296 300 303 307 311 311 306 304 307 309 310 315 320 319 317 324 330 330 328 330 333 333 331 329 329 327 318 301 287 285 282 277 274 270 264 257 252 250 248 251 255 254 249 248 248 244 240 245 247 243 242 246 248 246 242 238 234 233 233 232 233 235 234 232 230 228 227 227 228 229 230 230 232 235 239 243
294 296 297 296 296 300 298 294 293 292 293 300 306 307 306 306 306 305 305 307 311 314 314 314 320 323 322 325 333 339 339 336 333 334 332 325 312 299 292 284 273 271 271 265 257 251 249 250 253 256 253 248 248 245 239 238 240 241 239 235 237 243 243 238 234 231 228 226 228 232 234 232 230 228 226 226 227 228 229 229 230 232 236 239 243
293 294 295 295 295 299 299 297 297 294 292 297 300 297 298 303 303 298 299 304 307 309 311 312 313 316 320 325 332 340 344 342 337 338 337 330 322 317 311 295 276 270 269 265 260 253 250 251 252 253 252 249 248 244 239 239 237 235 235 233 234 242 243 238 234 232 227 227 231 235 236 235 232 230 228 228 228 229 230 231 232 234 236 239 243
294 294 294 294 293 294 296 295 295 295 294 294 290 289 294 298 294 290 296 303 302 304 310 311 307 311 319 324 329 339 346 345 339 341 344 340 331 323 322 312 287 273 265 265 266 256 248 249 251 251 251 248 246 244 242 240 234 229 231 233 235 238 241 239 237 232 226 227 231 233 233 233 233 232 231 232 232 233 234 235 235 235 235 238 243
295 295 292 291 290 292 295 295 294 294 293 286 282 286 294 298 296 296 300 303 300 301 309 310 306 308 315 320 327 339 346 346 343 341 342 343 340 333 331 325 303 280 265 263 269 263 251 250 251 250 250 249 246 244 241 239 235 231 231 233 233 234 237 239 238 233 227 226 229 230 229 231 232 232 233 234 235 236 237 237 237 235 235 238 243
297 296 293 292 292 293 294 293 293 291 285 282 284 290 298 303 304 304 303 301 298 300 307 309 304 304 311 317 325 337 346 350 349 344 339 340 342 341 340 335 319 297 274 264 266 266 259 255 253 252 251 249 246 243 241 239 238 236 233 230 229 230 231 232 234 237 235 231 231 230 229 230 232 233 234 235 236 237 238 239 238 237 237 240 244
298 297 297 296 294 293 292 292 292 288 284 286 290 296 306 314 314 311 305 300 298 301 305 307 305 304 308 314 320 331 345 353 352 347 342 341 341 341 343 342 330 312 291 274 267 265 262 258 255 252 249 245 242 240 241 240 239 236 232 228 227 230 230 228 231 236 238 235 231 230 230 230 231 234 236 237 237 236 237 238 240 241 241 243 245
298 298 298 297 297 296 294 292 291 289 288 289 292 300 314 323 322 317 308 301 299 302 303 303 305 306 308 313 317 324 338 351 353 348 343 340 339 340 342 343 339 331 316 291 274 267 263 259 255 252 247 243 241 240 239 238 238 237 234 230 230 232 231 229 231 236 239 236 229 228 229 229 229 233 237 238 237 237 239 240 242 243 243 244 247
296 297 299 299 300 298 295 295 294 292 290 291 294 303 314 322 324 320 311 303 300 301 303 302 303 307 310 312 316 320 326 338 348 348 341 337 337 338 339 341 341 340 337 321 289 271 264 258 254 251 245 239 238 239 236 235 235 235 234 232 231 231 229 227 231 236 239 235 227 224 227 227 225 230 235 237 237 237 242 244 245 244 243 245 248
294 296 298 299 299 298 297 298 298 295 294 293 295 301 310 318 323 320 314 306 301 303 305 299 297 306 312 312 316 320 320 324 335 340 338 335 334 335 335 337 339 339 340 340 322 288 268 261 255 251 245 241 241 242 237 235 236 235 235 234 231 230 231 232 235 236 235 234 227 223 225 224 221 225 232 235 235 236 240 244 246 246 247 248 250
291 294 297 298 297 298 299 298 299 298 296 296 296 300 307 316 322 322 318 310 306 308 309 299 296 308 314 312 314 319 321 322 328 333 334 333 332 331 333 336 338 338 339 340 336 315 283 267 261 256 250 245 245 244 239 235 234 234 235 235 231 231 232 233 233 233 231 230 225 222 226 226 221 222 226 228 231 233 236 240 244 246 249 251 252
288 293 296 296 294 295 296 298 301 300 296 296 298 302 306 315 321 322 320 316 312 312 311 309 310 315 315 313 314 317 321 325 328 332 334 332 330 331 334 336 337 336 337 337 335 326 301 268 256 255 253 249 245 242 236 232 232 232 233 234 235 235 231 226 227 229 227 227 226 224 225 225 221 220 222 223 226 229 230 235 241 245 248 250 251
288 292 295 294 292 293 296 299 301 301 300 300 300 301 306 315 320 320 320 320 318 313 312 316 320 319 317 318 317 317 322 327 329 333 335 331 328 330 335 338 337 334 335 336 332 329 317 277 249 243 245 246 244 240 234 231 232 233 234 235 236 237 234 226 224 226 225 225 228 226 222 222 220 219 222 223 223 223 224 231 240 244 246 248 249
284 289 294 293 291 293 298 299 298 296 297 299 299 301 307 314 318 318 317 319 321 319 317 322 326 323 321 321 321 321 325 328 329 332 334 331 329 331 336 340 339 335 335 336 332 328 322 293 254 240 237 238 239 239 237 237 240 240 237 236 235 235 235 229 224 225 225 225 228 224 220 221 221 220 221 221 219 219 219 224 234 240 243 245 247
280 286 289 289 291 295 296 297 299 298 299 300 298 300 308 314 316 317 316 316 319 322 323 326 329 329 327 326 327 328 329 329 329 331 333 332 330 332 337 341 342 339 338 339 337 332 327 313 273 244 237 238 237 237 237 239 241 239 235 234 234 233 233 232 229 227 225 225 226 222 219 221 221 219 218 215 214 214 213 216 227 235 239 244 246